FENGYUN 1C DEB, 32111

Orbit data source: Space-Track

FENGYUN 1C DEB, 32111 is space debris in SSO originally from a launch on Mon, 10 May 1999 UTC launched from the Taiyaun Space Center, China (TSC). Fengyun 1C debris stems from the Chinese weather satellite Fengyun-1C, which was intentionally destroyed by a Chinese anti-satellite missile in 2007. This event dramatically increased the amount of space debris, with thousands of trackable fragments posing hazards to satellites and human spaceflight. The Fengyun 1C debris cloud has become a focal point in discussions about space sustainability and the need for international regulations to prevent the creation of new debris.

Loading next visibility...
Identifier
32111, 1999-025CRD
Orbit
SSO
Country
Flag of CNCN / PRC
Related business
Manufacturer
Unknown
Mission
Spacecraft
Bus & Motor
Unknown
Mass
Unknown
Launch date (UTC)
1999-05-10 (27 years ago)
Launch vehicle
Unknown
Launch site
Taiyaun Space Center, China (TSC)
Object type
Payload
Rocket body
Debris
Shape & HBR
Unknown shape, 0.1 m
Radar Cross Section
Small (<0.1 m²)

Expand to show TLE details & history
Last TLE update: 10 hours ago

TLE from 10 hours ago
0 FENGYUN 1C DEB
1 32111U 99025CRD 26169.47032638  .00000450  00000-0  17098-3 0  9997
2 32111  98.4477 169.2213 0120010  10.3866 141.7191 14.31797011987171
Epoch: 2026-06-18T11:17Z
TLE epoch observation values (Epoch: 2026-06-18T11:17:16.199Z)
Latitude
26.77239°
Longitude
-82.53473°
Altitude
856.904 km
Speed
7.391 km/s
True Right ascension
23h 33m 59s
True Declination
26° 38' 10"
Sunlit
Object was in daylight at epoch
Visualization orbit readout
Latitude
Unknown
Longitude
Unknown
Altitude
Unknown
Speed
Unknown
Apparent Right ascension
Unknown
Apparent Declination
Unknown
Sunlit
N/A
Visualization observer readout
Local Sidereal Time
08:29:12
Azimuth
Unknown
Elevation
Unknown
Doppler factor
Unknown
Orbital elements
Apogee altitude
868.799 km
Perigee altitude
696.921 km
Semi-major axis
7,160.997 km
Eccentricity
0.012
Inclination
98.4477°
RAAN
169.2213°
Arg. of periapsis
10.3866°
True anomaly
142.56112°
Mean anomaly
141.7191°
Eccentric anomaly
142.1411°
Mean motion
3.58165 °/min
Orbital period
100.51 mins
BSTAR
0.00017098
Loading maneuver chart data...
Computing Atmospheric mass density...
Loading historical data...
Loading historical data...
Loading historical data...
Loading historical data...
Loading historical data...
Loading historical data...
Loading historical data...

Documentation

Showing up to 5 results
|